Location: Writing-on-Stone Provincial Park
(49.0825°N, 111.6163°W)
Time: 01:45:08
(UTC-06:00)

Daily predictions for brighter satellites

Satellite Brightness Start Highest point End
(mag) Time Altitude Azimuth Time Altitude Azimuth Time Altitude Azimuth
CZ-4C R/B 4.3 00:03:46 29° E 00:04:33 32° ENE 00:07:56 10° N
Cosmos 2297 4.4 00:00:29 10° SW 00:06:04 54° NW 00:11:44 10° NNE
Gbstr 26 Del rocket 3.1 00:04:00 10° WNW 00:08:49 57° SSW 00:09:37 48° SSE
Timation 1 Rocket 4.3 00:07:59 18° SSW 00:12:35 89° WNW 00:18:39 10° NNE
H-2A R/B 4.0 00:11:01 10° NE 00:14:46 25° E 00:15:11 24° ESE
Cosmos 1536 2.9 00:15:48 51° SE 00:16:17 55° E 00:20:12 10° NNE
Cosmos 1400 Rocket 2.9 00:16:25 53° SE 00:17:05 63° E 00:21:12 10° NNE
ISS -3.2 00:14:24 10° WSW 00:17:39 74° NNW 00:20:56 10° ENE
Cosmos 1892 Rocket 3.7 00:15:27 10° N 00:19:47 63° ENE 00:20:49 47° SE
Terra 3.7 00:26:48 15° SW 00:29:16 22° W 00:32:58 10° NW
Meteor 1-23 Rocket 4.1 00:26:34 10° NNW 00:32:12 90° WSW 00:34:13 41° S
Meteor 1-19 Rocket 4.5 00:26:51 10° NNW 00:32:39 65° W 00:35:04 35° SSW
Cosmos 1821 Rocket 4.0 00:31:19 32° SSW 00:34:25 85° W 00:40:41 10° N
SL-8 R/B 3.5 00:30:03 10° W 00:34:53 78° S 00:37:05 32° ESE
Cosmos 1605 Rocket 4.2 00:32:29 36° SSE 00:35:02 63° E 00:41:22 10° NNE
Cosmos 1503 Rocket 4.0 00:30:26 10° NNW 00:35:41 76° WSW 00:37:19 45° S
Iridium 4 Rocket 4.0 00:32:09 10° N 00:37:57 68° W 00:40:33 34° SSW
CZ-4B R/B 2.0 00:38:33 44° ENE 00:38:33 44° ENE 00:41:24 10° N
Cosmos 2285 Rocket 4.1 00:36:45 38° S 00:39:10 62° ESE 00:45:29 10° NNE
Cosmos 2084 Rocket 3.2 00:35:40 10° NW 00:39:33 77° NE 00:40:10 60° ESE
Cosmos 1602 Rocket 4.4 00:36:01 10° N 00:40:14 40° ENE 00:41:15 34° ESE
Cosmos 2369 Rocket 2.4 00:39:18 41° SSE 00:40:41 51° ESE 00:46:07 10° NE
Cosmos 1626 Rocket 4.2 00:41:09 10° N 00:45:27 44° ENE 00:46:26 38° ESE
Cosmos 2123 Rocket 4.0 00:40:35 10° NNW 00:46:52 75° W 00:49:26 38° S
Cosmos 1025 Rocket 3.7 00:43:51 10° NNW 00:48:02 45° W 00:49:03 38° SW
CZ-2C R/B 4.4 00:45:58 20° ESE 00:48:14 29° ENE 00:52:24 10° N
ALOS 2 2.5 00:47:43 58° SSE 00:48:34 89° ENE 00:52:59 10° NNW
Cosmos 1934 Rocket 3.9 00:46:18 35° SSW 00:49:00 79° W 00:55:06 10° N
Lacrosse 5 1.9 00:48:56 50° SSE 00:49:32 53° SE 00:54:30 10° ENE
CZ-2C R/B 3.7 00:46:34 10° NE 00:51:06 29° E 00:52:09 27° ESE
MOS 1-B Rocket 4.3 00:49:04 35° SE 00:51:49 70° ENE 00:58:48 10° NNW
Cosmos 1455 Rocket 3.0 00:51:26 57° SE 00:52:00 64° E 00:56:19 10° NNE
Meteor 2-16 Rocket 4.4 00:52:12 36° SSW 00:54:51 81° W 01:01:00 10° N
Cosmos 1633 3.1 00:58:16 47° WSW 00:58:42 50° WNW 01:02:20 10° N
Cosmos 968 Rocket 4.3 00:55:47 10° NNW 01:00:51 46° ENE 01:03:07 28° ESE
NOSS 3-1 (A) 4.2 00:56:44 10° NW 01:04:01 56° WSW 01:07:20 35° S
Cosmos 44 Rocket 4.0 01:00:42 10° NNW 01:05:47 53° NE 01:08:24 26° ESE
Meteor 1-5 Rocket 4.0 01:05:46 47° S 01:07:23 86° E 01:12:44 10° NNE
Okean 2 4.0 01:08:45 10° NNW 01:12:44 44° W 01:13:13 42° WSW
Cosmos 375 4.1 01:13:47 10° NW 01:18:00 80° SW 01:18:06 79° SSW
Cosmos 1500 4.3 01:18:17 32° E 01:18:17 32° E 01:21:40 10° NNE
Cosmos 1315 Rocket 3.4 01:18:32 41° WSW 01:19:09 45° WNW 01:22:57 10° N
Cosmos 1818 3.9 01:18:47 42° SE 01:19:28 45° ESE 01:24:41 10° NE
Cosmos 1943 Rocket 2.6 01:19:03 40° SE 01:20:06 45° ESE 01:25:25 10° NE
Cosmos 1544 Rocket 4.1 01:20:39 40° WSW 01:21:37 48° WNW 01:25:50 10° N
Cosmos 1515 3.7 01:20:20 10° N 01:24:12 68° E 01:24:22 67° E
Lacrosse 5 rocket 1.1 01:24:26 75° WNW 01:24:35 78° NNW 01:28:17 10° NE
ATLAS 2AS CENTAUR R/B 3.0 01:17:23 10° NW 01:25:36 88° SW 01:30:12 28° SE
Cosmos 1689 Rocket 3.4 01:27:11 36° WNW 01:27:11 36° WNW 01:29:38 10° NNW
GP-B 3.0 01:27:49 10° N 01:32:18 83° E 01:32:58 64° SSE
Meteor 1-12 Rocket 4.1 01:30:54 47° S 01:32:37 83° E 01:38:18 10° NNE
Helios 1A Rocket 2.8 01:30:00 10° NNE 01:34:10 76° ESE 01:34:31 70° SSE
Genesis I 4.1 01:33:41 33° W 01:35:03 48° NW 01:38:59 10° NNE
USA 234 3.6 01:30:29 10° NE 01:36:58 64° NNW 01:43:23 10° WSW
Cosmos 1992 Rocket 3.9 01:36:50 47° SSW 01:38:21 82° WNW 01:43:37 10° NNE
Cosmos 1777 Rocket 4.4 01:35:28 10° NNW 01:40:38 58° ENE 01:42:49 33° SE
Landsat 5 4.2 01:40:31 39° WSW 01:40:52 40° W 01:44:52 10° NNW
Cosmos 1346 Rocket 3.4 01:37:45 10° NNW 01:41:27 43° W 01:41:27 43° W
Cosmos 44 4.1 01:40:21 10° NNW 01:45:34 54° NE 01:48:52 20° ESE
Cosmos 2263 4.2 01:43:25 39° SW 01:45:34 77° WNW 01:51:16 10° NNE
BREEZE-M DEB (TANK) 3.2 01:37:34 10° W 01:49:42 87° SSW 01:52:42 16° ESE
H-2A R/B 3.5 01:46:10 10° N 01:50:29 43° WNW 01:51:49 34° WSW
Cosmos 1953 Rocket 4.0 01:47:00 10° N 01:51:16 52° ENE 01:52:13 43° ESE
ISS -2.6 01:51:06 10° WNW 01:54:19 52° N 01:57:31 10° E
Cosmos 2100 Rocket 4.1 01:55:57 39° SSW 01:58:28 75° W 02:04:53 10° N
BREEZE-M DEB (TANK) 3.5 01:55:08 10° W 01:58:47 55° SSW 02:11:33 10° SE
Cosmos 1825 Rocket 3.5 01:57:50 10° N 02:02:19 90° N 02:03:06 61° S
Cosmos 1726 Rocket 4.1 02:03:33 40° ESE 02:04:17 45° E 02:08:25 10° NNE
Meteor 1-21 4.2 02:02:42 10° N 02:08:21 80° ENE 02:10:30 40° SSE
Cosmos 1975 3.5 02:08:41 39° W 02:09:14 42° WNW 02:13:08 10° N
Cosmos 2061 Rocket 4.2 02:08:43 37° SSW 02:11:21 67° WNW 02:17:47 10° N
CZ-4B R/B 4.0 02:12:18 10° WNW 02:12:18 10° WNW 02:12:31 10° WNW
Cosmos 1758 Rocket 3.6 02:10:48 10° N 02:15:20 78° ENE 02:16:23 52° SSE
Cosmos 1743 2.5 02:16:27 76° S 02:16:43 86° ESE 02:20:37 10° N
Cosmos 1459 Rocket 4.2 02:15:00 35° SW 02:17:27 58° WNW 02:23:28 10° N
Cosmos 2016 Rocket 3.9 02:15:58 40° SSW 02:18:19 78° W 02:24:28 10° N
Cosmos 1340 2.9 02:18:20 10° N 02:22:09 64° ENE 02:22:42 55° ESE
Cosmos 1802 Rocket 4.2 02:21:21 36° SW 02:23:54 62° WNW 02:30:10 10° N
UNK 3.6 02:13:37 10° WSW 02:24:35 72° SSE 02:27:54 10° E
Cosmos 2369 Rocket 3.5 02:21:04 16° WSW 02:24:57 33° NW 02:30:02 10° NNE
SeaSat 1 2.3 02:23:58 41° SSE 02:25:45 82° WSW 02:30:44 10° NNW
CZ-2C R/B 3.5 02:27:02 38° SW 02:28:00 42° W 02:32:38 10° NNW
Cosmos 1842 3.3 02:24:56 10° N 02:28:57 79° E 02:29:35 60° SSE
Cosmos 2219 3.4 02:25:23 10° NW 02:30:52 52° WSW 02:32:20 41° SSW
CZ-2C R/B 3.3 02:26:36 10° N 02:31:34 45° WNW 02:33:40 30° WSW
Lacrosse 5 2.7 02:28:05 12° W 02:32:36 50° NNW 02:37:35 10° NE
Gblst 52 Del rocket 4.5 02:26:37 10° WSW 02:33:32 87° NNW 02:39:37 10° ENE
Cosmos 2227 Rocket 2.8 02:29:26 10° NNW 02:35:04 57° ENE 02:40:20 12° SE
Cosmos 1864 Rocket 4.5 02:35:54 37° SSW 02:38:36 82° W 02:44:52 10° N
Uosat 12 SS-18 rocket 4.2 02:36:04 10° NW 02:40:37 81° SW 02:43:19 28° SSE
Cosmos 1570 Rocket 4.2 02:39:21 39° S 02:41:14 64° ESE 02:46:32 10° NNE
Abrixas 4.1 02:43:55 27° E 02:43:55 27° E 02:45:31 10° E
Cosmos 968 Rocket 4.5 02:37:58 10° NW 02:42:27 29° W 02:43:07 28° WSW
Cosmos 1666 2.6 02:45:35 63° S 02:46:08 83° E 02:49:57 10° N
Cosmos 44 Rocket 4.3 02:42:41 10° NW 02:47:04 30° WSW 02:47:04 30° WSW
BREEZE-M R/B 4.2 02:39:16 10° WNW 02:47:36 69° SSW 02:53:24 10° SE
NOSS 3-4 (A) 4.3 02:41:43 10° NW 02:48:30 61° NE 02:55:41 10° ESE
NOSS 3-4 (C) 4.3 02:41:49 10° NW 02:48:38 61° NE 02:55:51 10° ESE
Cosmos 2228 3.0 02:52:39 46° S 02:53:52 78° E 02:58:10 10° NNE
Cosmos 1725 Rocket 4.1 02:51:17 33° SSW 02:54:02 63° WNW 03:00:12 10° N
USA 161 4.4 02:53:08 10° ESE 02:54:47 14° ENE 02:56:25 10° NNE
Cosmos 1656 Rocket 3.8 02:53:58 34° SW 02:56:30 72° WNW 03:02:08 10° NNE
Cosmos 2297 Rocket 2.7 02:50:58 10° NNW 02:56:35 60° ENE 03:02:09 10° SE
JB-3 4.4 02:53:58 10° NNE 02:58:04 81° ESE 02:59:12 47° S
Resurs 1-4 Rocket 4.4 02:55:34 10° NE 02:58:39 16° E 03:01:43 10° ESE
NOSS 3-3 (A) 4.0 02:55:45 33° SSW 02:58:53 81° SE 03:05:46 10° NE
NOSS 3-3 (C) 4.0 02:55:50 33° SSW 02:58:58 80° SE 03:05:51 10° NE
Cosmos 405 Rocket 3.9 02:55:30 10° N 02:59:25 42° ENE 03:01:51 20° SE
Tsikada Rocket 4.5 02:54:37 10° NNW 03:00:36 47° W 03:03:15 31° SW
NPP 4.1 02:57:48 10° NNE 03:03:06 53° E 03:05:57 26° SSE
Cosmos 1943 Rocket 3.3 03:00:34 19° WSW 03:03:58 37° NW 03:09:11 10° NNE
Lacrosse 5 rocket 3.1 03:01:02 10° WNW 03:04:14 27° NNW 03:07:25 10° NE
Cosmos 1606 Rocket 4.4 03:04:27 31° WSW 03:05:36 38° WNW 03:09:40 10° N
ARIANE 5 R/B 4.4 03:02:05 10° NE 03:06:03 22° E 03:10:01 10° SE
Landsat 4 3.6 03:07:17 46° S 03:08:20 80° WSW 03:12:12 10° NNW
PSLV R/B 3.8 03:09:39 10° N 03:14:03 64° WNW 03:15:44 36° SW
ATLAS 2AS CENTAUR R/B 4.0 03:09:29 10° WNW 03:15:40 25° WSW 03:17:35 23° SW
SL-16 R/B 3.5 03:12:54 10° SE 03:18:43 47° ENE 03:24:35 10° N
USA 234 4.3 03:13:17 10° ENE 03:19:27 45° N 03:25:35 10° WNW
ERS-2 3.3 03:20:46 10° NNE 03:24:17 38° E 03:26:03 23° SSE
Cosmos 2058 Rocket 3.9 03:23:00 29° WSW 03:24:31 38° WNW 03:28:42 10° N
Cosmos 1812 Rocket 3.7 03:22:42 31° S 03:24:48 75° E 03:29:17 10° NNE
Cosmos 2208 Rocket 4.2 03:23:23 30° SW 03:25:54 63° WNW 03:31:10 10° NNE
Cosmos 44 4.2 03:22:05 10° NW 03:26:34 30° WSW 03:27:13 29° SW
SL-08 R/B 3.3 03:27:22 29° S 03:29:39 64° WSW 03:34:17 10° NNW
ISS -3.5 03:27:36 10° WNW 03:30:52 73° SSW 03:34:07 10° ESE
CBERS-1 4.1 03:26:28 10° NNE 03:31:39 78° ESE 03:34:38 26° S
Cosmos 2298 Rocket 4.0 03:27:15 10° NNW 03:32:32 67° WSW 03:36:11 20° S
GENESIS II 4.4 03:35:19 33° SW 03:37:05 76° NW 03:41:16 10° NE
Cosmos 1707 2.7 03:36:19 10° N 03:40:18 87° W 03:42:30 25° S
Cosmos 972 Rocket 4.5 03:37:08 10° NW 03:41:43 39° WSW 03:43:53 26° SSW
Cosmos 1656 4.3 03:44:43 18° S 03:48:43 49° ESE 03:54:09 10° NE
UNK 4.2 03:48:28 10° SSE 03:53:06 65° ENE 03:57:45 10° N
Okean 3 Rocket 3.5 03:50:31 10° NNW 03:54:55 70° W 03:57:57 20° S
CZ-2D R/B 3.1 03:51:21 10° NNE 03:56:37 45° E 04:01:46 10° S
Cosmos 1464 Rocket 4.1 03:53:04 21° SSW 03:57:26 71° WNW 04:03:49 10° N
IRS-1C 4.1 03:52:21 10° NNE 03:57:43 80° WNW 04:01:27 20° SSW
Cosmos 990 Rocket 3.9 03:52:34 10° NNW 03:57:51 84° WSW 04:03:06 10° SSE
SME Rocket 4.5 03:52:34 10° SSE 03:58:26 86° WSW 04:07:46 10° NNW
ATLAS CENTAUR R/B 2.3 03:55:47 21° SSW 03:58:58 53° ESE 04:03:50 10° NE
Cosmos 468 Rocket 4.0 03:59:23 21° SSW 04:02:52 89° ESE 04:08:04 10° NNE
SeaSat 1 4.2 04:03:46 14° WSW 04:03:58 14° WSW 04:06:25 10° WNW
Cosmos 1461 4.3 04:03:30 10° NNW 04:07:32 40° NE 04:11:23 10° ESE
Cosmos 2082 4.4 04:02:52 10° NW 04:07:54 34° WSW 04:11:29 17° SSW
Cosmos 1092 Rocket 4.2 04:02:17 10° N 04:08:36 77° E 04:14:55 10° SSE
BREEZE-M DEB (TANK) 4.4 04:06:01 15° S 04:08:47 24° SE 04:12:08 10° E
Cosmos 1697 Rocket 3.2 04:05:53 14° S 04:10:33 54° ESE 04:16:04 10° NE
NOSS 2-1 (D) 3.5 04:11:25 22° SW 04:13:58 82° SE 04:18:43 10° NE
NOSS 2-1 (C) 3.5 04:12:44 21° SW 04:15:21 83° SE 04:20:07 10° NE
Lacrosse 5 3.5 04:11:49 10° WNW 04:16:27 33° N 04:21:05 10° ENE
Abrixas 2.7 04:15:55 14° W 04:18:20 47° SSW 04:21:19 10° ESE
Cosmos 1980 Rocket 3.3 04:13:28 10° S 04:18:40 40° ESE 04:23:55 10° NE
Cosmos 2227 Rocket 3.2 04:14:04 10° NW 04:18:47 27° WSW 04:22:05 16° SSW
Meteor 2-5 Rocket 4.4 04:13:56 10° NNW 04:19:17 38° W 04:23:37 15° SSW
Cosmos 1898 Rocket 4.4 04:16:34 10° NW 04:21:13 31° W 04:24:45 15° SSW
USA 161 2.4 04:23:54 23° SW 04:24:57 29° W 04:27:29 10° NNW
GEOS 3 Rocket 3.7 04:20:59 10° SSE 04:26:04 52° SW 04:31:08 10° NW
Cosmos 1125 Rocket 3.7 04:22:23 10° NNW 04:27:38 78° ENE 04:32:50 10° SSE
Cosmos 1076 Rocket 3.5 04:23:44 10° NNW 04:28:03 65° W 04:32:19 10° S
Cosmos 2322 Rocket 4.3 04:26:08 10° SSE 04:30:13 21° E 04:34:16 10° NE
NOSS 2-1 (E) 3.6 04:27:23 17° SW 04:30:28 81° NW 04:35:24 10° NE
Geosat 4.4 04:27:11 10° NNE 04:32:06 54° NW 04:36:19 14° SW
MTI 3.8 04:29:57 10° SSE 04:33:14 88° ENE 04:36:34 10° NNW
Cosmos 1743 Rocket 3.9 04:29:30 10° N 04:33:51 67° ENE 04:38:10 10° SSE
Cosmos 1937 Rocket 4.3 04:29:29 10° NW 04:34:02 32° WSW 04:38:35 10° SSW
BREEZE-M DEB (TANK) 2.9 04:31:18 10° WSW 04:34:57 88° SSE 04:39:15 10° E
Cosmos 841 Rocket 3.7 04:30:03 12° SSW 04:35:01 76° ESE 04:40:18 10° NNE
Cosmos 405 Rocket 4.4 04:32:17 10° NW 04:35:11 19° W 04:37:04 14° WSW
Cosmos 1437 3.3 04:31:55 10° N 04:35:15 62° ENE 04:38:34 10° SSE
Okean O Rocket 2.9 04:33:35 10° NNE 04:37:43 38° E 04:41:51 10° SSE
Resurs 1-4 Rocket 2.1 04:33:53 10° NNE 04:39:12 84° WNW 04:44:27 10° SSW
NOSS 3-4 (A) 4.2 04:32:54 10° NW 04:39:18 40° WSW 04:46:02 10° S
NOSS 3-4 (C) 4.2 04:33:00 10° NW 04:39:27 41° WSW 04:46:14 10° S
Cosmos 2297 Rocket 3.2 04:35:39 10° NW 04:40:14 26° WSW 04:44:48 10° SSW
Cosmos 2278 4.5 04:35:52 13° WSW 04:40:40 42° NW 04:46:04 10° NNE
Cosmos 1763 Rocket 3.5 04:36:56 12° SSW 04:41:49 86° WNW 04:47:02 10° NNE
Cosmos 2369 4.3 04:37:06 13° WSW 04:41:55 45° NW 04:47:23 10° NNE
ADEOS 4.2 04:38:07 10° N 04:43:02 42° WNW 04:47:32 12° SW
Lacrosse 5 rocket 3.3 04:41:11 10° NW 04:44:18 25° N 04:47:25 10° ENE
Cosmos 1766 3.5 04:41:13 13° SSW 04:44:38 53° WNW 04:48:32 10° N
MOZ.5/SAFIR/RUBIN 5/SL-8 4.2 04:40:52 10° SSE 04:45:32 67° ENE 04:50:12 10° N
ARIANE 5 R/B 2.7 04:40:31 10° N 04:45:33 59° WNW 04:50:32 10° SSW
Cosmos 1378 3.9 04:43:33 10° NNW 04:47:03 36° W 04:50:32 10° SSW
UNKNOWN OBJECT B 2.8 04:49:56 10° N 04:53:53 77° WNW 04:57:44 10° SSW
BREEZE-M DEB (TANK) 2.3 04:51:42 10° W 04:54:21 50° S 04:58:43 10° ESE
Cosmos 1408 Rocket 4.2 04:51:56 10° NNW 04:55:58 36° W 05:00:00 10° SSW
NOSS 7 (D) 4.4 04:53:54 12° SW 04:57:02 89° NW 05:00:35 10° NE
ERS-2 3.9 04:55:02 10° NNW 04:57:52 21° WNW 05:00:41 10° WSW
Cosmos-2242 3.0 04:54:01 10° SSW 04:58:20 76° W 05:02:39 10° N
Cosmos 1766 Rocket 4.2 04:54:36 10° NNW 04:58:40 37° W 05:02:45 10° SSW
USA 234 4.1 04:55:29 10° E 05:01:51 55° NNE 05:08:12 10° WNW
SL-16 R/B 3.2 04:56:55 10° SSW 05:02:30 36° W 05:08:08 10° NNW
SL-16 R/B 3.7 04:57:36 10° S 05:02:38 34° ESE 05:07:42 10° NE
Cosmos 1758 3.4 05:01:31 10° SSW 05:05:32 66° WNW 05:09:31 10° N
ISS -1.7 05:04:46 10° W 05:06:52 16° SW 05:08:58 10° S
Cosmos 1655 Rocket 4.1 05:01:45 10° NNW 05:08:10 76° W 05:14:32 10° S
EO 1 Del DPAF 4.5 05:06:33 10° SSW 05:09:46 25° W 05:13:00 10° NW
Thor Agena Rocket 3.6 05:05:32 10° SSE 05:10:36 89° NE 05:15:41 10° NNW
Cosmos 1953 2.6 05:06:48 10° SSW 05:10:46 56° WNW 05:14:48 10° N
Cosmos 540 Rocket 3.9 05:06:40 10° S 05:11:47 64° ESE 05:16:55 10° NNE
IRS-1D 4.2 05:07:13 10° N 05:11:48 38° WNW 05:16:21 10° SW
Cosmos 2263 Rocket 3.0 05:09:35 10° NNW 05:15:07 57° ENE 05:20:35 10° SE
